{"data":{"norad_id":65121,"intl_designator":"2025-170C","name":"GEESAT-4 03","alt_names":[],"object_type":"PAYLOAD","status":"ACTIVE","operator":null,"country":"PRC","launch_date":"2025-08-08","launch_site_code":"YSLA","launch_vehicle":null,"mission":null,"orbit_class":"UNKNOWN","rcs_meters":null,"size_class":null,"mass_kg":null,"dimensions":null,"purposes":[],"wikipedia_slug":null,"has_3d_model":false,"image_url":null,"decayed_at":null,"tle_current":{"epoch":"2026-05-25T03:45:52.539840Z","epoch_age_seconds":57546,"freshness":"FRESH","line1":"1 65121U 25170C   26145.15685810  .00001408  00000+0  19436-3 0  9990","line2":"2 65121  49.9934 280.8942 0020400 332.5714  27.4146 14.83969894 43012","mean_motion":14.83969894,"eccentricity":0.00204,"inclination_deg":49.9934,"raan_deg":280.8942,"arg_perigee_deg":332.5714,"mean_anomaly_deg":27.4146,"bstar":0.00019436,"rev_number":4301,"period_min":97.037009027085,"perigee_km":602.5513382304,"apogee_km":631.09076708524,"semimajor_km":6994.9580526578,"source":"CELESTRAK","updated_at":"2026-05-25T13:38:05.137554Z"}}}